BEIDOU-2 G6

Last updated on Sun Jan 18 2026 00:02:46 GMT+0000 (Coordinated Universal Time)

1 38953U 12059A 26017.80831263 -.00000162 00000+0 00000+0 0 9990 2 38953 4.0393 75.1529 0009310 295.7611 121.3146 1.00270930 48408
UTC large
Height (km)
Speed (km/s)
/
Latitude / Longitude
Inclination (degrees)
Orbital Period (minutes)
Azimuth
Elevation
Range (km)
Doppler Factor

Next 0 passes for location: London (51.5072 / 0.1276)

Sorry there are no passes over London.